TimeEST,TemperatureF,Dew PointF,Humidity,Sea Level PressureIn,VisibilityMPH,Wind Direction,Wind SpeedMPH,Gust SpeedMPH,PrecipitationIn,Events,Conditions,WindDirDegrees,DateUTC
12:15 AM,25.9,12.2,56,29.96,10.0,NW,5.8,-,N/A,,Clear,310,2013-03-04 05:15:00
12:35 AM,25.7,12.0,56,29.96,10.0,NNW,3.5,-,N/A,,Clear,330,2013-03-04 05:35:00
12:55 AM,24.1,12.2,61,29.96,10.0,Calm,Calm,-,N/A,,Clear,0,2013-03-04 05:55:00
1:15 AM,23.0,12.4,64,29.96,10.0,Calm,Calm,-,N/A,,Clear,0,2013-03-04 06:15:00
1:35 AM,22.1,12.6,67,29.97,10.0,Calm,Calm,-,N/A,,Clear,0,2013-03-04 06:35:00
1:55 AM,20.3,12.6,72,29.96,10.0,Calm,Calm,-,N/A,,Clear,0,2013-03-04 06:55:00
2:15 AM,21.0,12.6,70,29.96,10.0,Calm,Calm,-,N/A,,Clear,0,2013-03-04 07:15:00
2:55 AM,17.8,12.6,80,29.96,10.0,Calm,Calm,-,N/A,,Clear,0,2013-03-04 07:55:00
3:15 AM,18.9,12.6,76,29.96,10.0,Calm,Calm,-,N/A,,Clear,0,2013-03-04 08:15:00
3:35 AM,17.4,12.0,79,29.96,10.0,Calm,Calm,-,N/A,,Clear,0,2013-03-04 08:35:00
3:55 AM,18.5,12.2,76,29.96,10.0,Calm,Calm,-,N/A,,Clear,0,2013-03-04 08:55:00
4:35 AM,18.0,11.3,75,29.97,10.0,Calm,Calm,-,N/A,,Clear,0,2013-03-04 09:35:00
4:55 AM,17.2,10.6,75,29.97,10.0,Calm,Calm,-,N/A,,Clear,0,2013-03-04 09:55:00
5:15 AM,17.2,11.1,77,29.98,10.0,Calm,Calm,-,N/A,,Clear,0,2013-03-04 10:15:00
5:35 AM,15.6,10.2,79,29.98,10.0,Calm,Calm,-,N/A,,Clear,0,2013-03-04 10:35:00
5:55 AM,16.7,10.6,77,29.99,10.0,Calm,Calm,-,N/A,,Clear,0,2013-03-04 10:55:00
6:15 AM,17.2,11.5,78,30.00,10.0,Calm,Calm,-,N/A,,Clear,0,2013-03-04 11:15:00
6:35 AM,16.0,9.7,76,30.00,10.0,Calm,Calm,-,N/A,,Clear,0,2013-03-04 11:35:00
7:15 AM,16.2,10.8,79,30.02,10.0,Calm,Calm,-,N/A,,Clear,0,2013-03-04 12:15:00
7:35 AM,17.8,12.2,79,30.02,10.0,Calm,Calm,-,N/A,,Clear,0,2013-03-04 12:35:00
7:55 AM,21.9,15.4,76,30.03,10.0,Calm,Calm,-,N/A,,Clear,0,2013-03-04 12:55:00
8:15 AM,26.1,15.3,64,30.03,10.0,Calm,Calm,-,N/A,,Clear,0,2013-03-04 13:15:00
8:35 AM,28.4,12.6,52,30.04,10.0,NNW,4.6,-,N/A,,Clear,340,2013-03-04 13:35:00
8:55 AM,29.8,12.0,48,30.05,10.0,NNW,4.6,-,N/A,,Clear,330,2013-03-04 13:55:00
9:15 AM,30.7,11.3,44,30.04,10.0,NNW,5.8,-,N/A,,Clear,330,2013-03-04 14:15:00
9:35 AM,32.4,11.3,42,30.05,10.0,NW,3.5,-,N/A,,Clear,320,2013-03-04 14:35:00
9:55 AM,32.9,8.6,36,30.04,10.0,NW,6.9,-,N/A,,Clear,310,2013-03-04 14:55:00
10:15 AM,34.7,8.8,34,30.05,10.0,WNW,6.9,-,N/A,,Clear,290,2013-03-04 15:15:00
10:35 AM,35.4,8.2,32,30.04,10.0,NW,9.2,16.1,N/A,,Clear,310,2013-03-04 15:35:00
10:55 AM,36.7,7.7,30,30.04,10.0,WNW,8.1,-,N/A,,Clear,300,2013-03-04 15:55:00
11:15 AM,37.8,8.1,29,30.04,10.0,NNW,8.1,-,N/A,,Clear,330,2013-03-04 16:15:00
11:35 AM,39.0,8.8,29,30.03,10.0,NNW,9.2,-,N/A,,Clear,330,2013-03-04 16:35:00
11:55 AM,39.9,9.1,28,30.02,10.0,NW,5.8,-,N/A,,Clear,310,2013-03-04 16:55:00
12:15 PM,41.4,9.7,27,30.01,10.0,NW,9.2,-,N/A,,Clear,310,2013-03-04 17:15:00
12:35 PM,40.8,8.6,27,30.00,10.0,WNW,3.5,-,N/A,,Clear,300,2013-03-04 17:35:00
12:55 PM,43.3,10.0,26,29.99,10.0,North,8.1,-,N/A,,Clear,10,2013-03-04 17:55:00
1:15 PM,43.5,7.5,23,29.98,10.0,North,9.2,16.1,N/A,,Clear,350,2013-03-04 18:15:00
1:35 PM,45.1,7.2,21,29.97,10.0,NW,8.1,-,N/A,,Clear,320,2013-03-04 18:35:00
1:55 PM,46.8,6.3,19,29.96,10.0,NW,9.2,-,N/A,,Clear,320,2013-03-04 18:55:00
2:15 PM,46.4,5.4,19,29.96,10.0,WNW,9.2,-,N/A,,Clear,290,2013-03-04 19:15:00
2:35 PM,47.3,4.6,17,29.96,10.0,West,6.9,-,N/A,,Clear,280,2013-03-04 19:35:00
2:55 PM,48.0,4.8,17,29.96,10.0,NW,3.5,-,N/A,,Clear,310,2013-03-04 19:55:00
3:15 PM,49.1,4.3,16,29.96,10.0,West,4.6,-,N/A,,Clear,280,2013-03-04 20:15:00
3:35 PM,49.5,2.8,15,29.96,10.0,West,4.6,-,N/A,,Clear,280,2013-03-04 20:35:00
3:55 PM,50.0,3.2,15,29.96,10.0,WNW,6.9,-,N/A,,Clear,300,2013-03-04 20:55:00
4:15 PM,49.1,2.1,15,29.96,10.0,WNW,3.5,-,N/A,,Clear,290,2013-03-04 21:15:00
4:35 PM,50.0,3.9,15,29.96,10.0,NNW,8.1,-,N/A,,Clear,340,2013-03-04 21:35:00
4:55 PM,49.3,4.3,16,29.96,10.0,NNW,8.1,-,N/A,,Clear,330,2013-03-04 21:55:00
5:15 PM,48.2,5.0,17,29.96,10.0,NW,6.9,-,N/A,,Clear,320,2013-03-04 22:15:00
5:35 PM,46.8,5.5,19,29.96,10.0,NW,10.4,-,N/A,,Clear,310,2013-03-04 22:35:00
5:55 PM,45.5,5.9,20,29.97,10.0,NW,6.9,-,N/A,,Clear,320,2013-03-04 22:55:00
6:15 PM,43.0,6.3,22,29.98,10.0,Calm,Calm,-,N/A,,Clear,0,2013-03-04 23:15:00
6:35 PM,40.1,6.8,25,29.99,10.0,Calm,Calm,-,N/A,,Clear,0,2013-03-04 23:35:00
6:55 PM,36.7,8.4,31,30.00,10.0,NW,5.8,-,N/A,,Clear,310,2013-03-04 23:55:00
7:15 PM,39.9,7.2,26,30.00,10.0,NNW,3.5,-,N/A,,Clear,340,2013-03-05 00:15:00
7:35 PM,39.2,7.5,27,30.01,10.0,NNW,5.8,-,N/A,,Clear,340,2013-03-05 00:35:00
7:55 PM,38.3,8.6,29,30.02,10.0,NW,6.9,-,N/A,,Clear,320,2013-03-05 00:55:00
8:15 PM,37.4,9.0,31,30.02,10.0,Calm,Calm,-,N/A,,Clear,0,2013-03-05 01:15:00
8:35 PM,34.7,9.9,36,30.02,10.0,Calm,Calm,-,N/A,,Clear,0,2013-03-05 01:35:00
8:55 PM,31.5,12.0,45,30.03,10.0,SSE,3.5,-,N/A,,Clear,160,2013-03-05 01:55:00
9:15 PM,34.3,9.7,36,30.03,10.0,Calm,Calm,-,N/A,,Clear,0,2013-03-05 02:15:00
9:35 PM,32.2,11.7,43,30.03,10.0,Calm,Calm,-,N/A,,Clear,0,2013-03-05 02:35:00
9:55 PM,31.6,12.4,45,30.04,10.0,Calm,Calm,-,N/A,,Clear,0,2013-03-05 02:55:00
10:15 PM,28.6,13.5,53,30.04,10.0,Calm,Calm,-,N/A,,Clear,0,2013-03-05 03:15:00
10:35 PM,31.3,12.6,46,30.04,10.0,Calm,Calm,-,N/A,,Clear,0,2013-03-05 03:35:00
10:55 PM,27.7,14.4,57,30.05,10.0,Calm,Calm,-,N/A,,Clear,0,2013-03-05 03:55:00
11:15 PM,26.8,15.1,61,30.05,10.0,Calm,Calm,-,N/A,,Clear,0,2013-03-05 04:15:00
11:35 PM,27.0,15.6,62,30.04,10.0,Calm,Calm,-,N/A,,Clear,0,2013-03-05 04:35:00
11:55 PM,27.1,15.8,62,30.04,10.0,Calm,Calm,-,N/A,,Clear,0,2013-03-05 04:55:00